Oak Island, MN

10:16 PM CDT on August 24, 2016 (GMT -0500)
Flag Island

Weather History for KFGN - September, 2012

Change the Weather History Date:

Saturday, September 8, 2012

  Actual Average Record
Temperature  
Mean Temperature 55 °F -  
Max Temperature 60 °F 63 °F 80 °F (2003)
Min Temperature 50 °F 52 °F 42 °F (2008)
Degree Days  
Heating Degree Days 10    
Growing Degree Days 5 (Base 50)    
Moisture  
Dew Point 49 °F    
Average Humidity 79    
Maximum Humidity 88    
Minimum Humidity 63    
Precipitation  
Precipitation 0.00 in - - ()
Sea Level Pressure  
Sea Level Pressure 29.91 in    
Wind  
Wind Speed 18 mph (NW)    
Max Wind Speed 31 mph    
Max Gust Speed 44 mph    
Visibility 10 miles    
Events Rain    
Averages and records for this station are not official NWS values.
T = Trace of Precipitation, MM = Missing Value Source: NWS Daily Summary

Daily Weather History Graph

Daily Weather History Graph

Search for Another Location

Airport or City:

Trip Planner

Search our weather history database for the weather conditions in past years. The results will help you decide how hot, cold, wet, or windy it might be!

Date:

Astronomy

Sep. 08, 2012 Rise Set
Actual Time 6:46 AM CDT 7:46 PM CDT
Civil Twilight 6:14 AM CDT 8:18 PM CDT
Nautical Twilight 5:34 AM CDT 8:57 PM CDT
Astronomical Twilight 4:53 AM CDT 9:39 PM CDT
Moon 11:53 PM CDT (9/8) 3:08 PM CDT (9/8)
Length of Visible Light 14h 04m
Length of Day
13h 00m
Waning Gibbous, 48% of the Moon is Illuminated
Sep 8
Waning Gibbous
Sep 15
New
Sep 22
First Quarter
Sep 29
Full
Oct 8
Last Quarter

Hourly Weather History & Observations

Time (CDT) Temp. Dew Point Humidity Pressure Visibility Wind Dir Wind Speed Gust Speed Precip Events Conditions
12:13 AM 53.6 °F 46.4 °F 77% 29.95 in 10.0 mi WSW 10.4 mph - N/A   Clear
12:33 AM 53.6 °F 46.4 °F 77% 29.94 in 10.0 mi WSW 12.7 mph - N/A   Clear
12:53 AM 51.8 °F 46.4 °F 82% 29.93 in 10.0 mi SW 12.7 mph - N/A   Clear
1:13 AM 51.8 °F 46.4 °F 82% 29.92 in 10.0 mi WSW 13.8 mph - N/A   Clear
1:34 AM 51.8 °F 46.4 °F 82% 29.91 in 10.0 mi SW 13.8 mph - N/A   Clear
1:53 AM 50.0 °F 46.4 °F 87% 29.91 in 10.0 mi SW 12.7 mph - N/A   Clear
2:13 AM 50.0 °F 46.4 °F 87% 29.89 in 10.0 mi SW 13.8 mph - N/A   Clear
2:34 AM 51.8 °F 46.4 °F 82% 29.87 in 10.0 mi SW 16.1 mph - N/A   Clear
2:53 AM 51.8 °F 46.4 °F 82% 29.86 in 10.0 mi SW 19.6 mph - N/A   Clear
3:13 AM 51.8 °F 46.4 °F 82% 29.85 in 10.0 mi SW 18.4 mph 25.3 mph N/A   Clear
3:34 AM 51.8 °F 46.4 °F 82% 29.83 in 10.0 mi SW 18.4 mph - N/A   Clear
3:53 AM 51.8 °F 46.4 °F 82% 29.82 in 10.0 mi WSW 16.1 mph - N/A   Clear
4:13 AM 51.8 °F 44.6 °F 76% 29.81 in 10.0 mi WSW 16.1 mph - N/A   Scattered Clouds
4:34 AM 50.0 °F 44.6 °F 82% 29.80 in 10.0 mi WSW 15.0 mph - N/A   Scattered Clouds
4:53 AM 50.0 °F 44.6 °F 82% 29.79 in 10.0 mi SW 15.0 mph - N/A   Scattered Clouds
5:13 AM 50.0 °F 44.6 °F 82% 29.77 in 10.0 mi SW 16.1 mph - N/A   Mostly Cloudy
5:34 AM 51.8 °F 44.6 °F 76% 29.76 in 10.0 mi WSW 17.3 mph - N/A   Overcast
5:53 AM 51.8 °F 44.6 °F 76% 29.78 in 10.0 mi West 17.3 mph 21.9 mph N/A   Overcast
6:13 AM 53.6 °F 44.6 °F 72% 29.78 in 10.0 mi West 17.3 mph - N/A   Overcast
6:34 AM 53.6 °F 48.2 °F 82% 29.77 in 7.0 mi WNW 16.1 mph 29.9 mph N/A Rain Rain
6:53 AM 53.6 °F 48.2 °F 82% 29.78 in 10.0 mi WNW 16.1 mph - N/A   Overcast
7:13 AM 53.6 °F 48.2 °F 82% 29.78 in 10.0 mi WNW 17.3 mph - N/A   Overcast
7:34 AM 53.6 °F 48.2 °F 82% 29.79 in 10.0 mi WNW 17.3 mph - N/A   Scattered Clouds
7:53 AM 55.4 °F 50.0 °F 82% 29.79 in 10.0 mi WNW 17.3 mph 23.0 mph N/A   Scattered Clouds
8:13 AM 55.4 °F 50.0 °F 82% 29.79 in 10.0 mi NW 19.6 mph 26.5 mph N/A   Mostly Cloudy
8:34 AM 55.4 °F 48.2 °F 77% 29.79 in 10.0 mi WNW 20.7 mph 27.6 mph N/A   Overcast
9:33 AM 53.6 °F 50.0 °F 88% 29.79 in 4.0 mi WNW 24.2 mph 43.7 mph N/A Rain Light Rain
9:54 AM 53.6 °F 48.2 °F 82% 29.79 in 10.0 mi WNW 26.5 mph 31.1 mph N/A   Overcast
10:13 AM 53.6 °F 48.2 °F 82% 29.79 in 10.0 mi WNW 25.3 mph 31.1 mph N/A   Overcast
10:33 AM 55.4 °F 48.2 °F 77% 29.80 in 10.0 mi WNW 26.5 mph 41.4 mph N/A   Overcast
10:54 AM 53.6 °F 48.2 °F 82% 29.80 in 10.0 mi NW 25.3 mph 36.8 mph N/A   Overcast
11:13 AM 53.6 °F 48.2 °F 82% 29.82 in 10.0 mi NW 26.5 mph 33.4 mph N/A   Light Drizzle
11:33 AM 53.6 °F 50.0 °F 88% 29.82 in 10.0 mi NW 27.6 mph 35.7 mph N/A   Overcast
11:54 AM 55.4 °F 50.0 °F 82% 29.84 in 10.0 mi NW 31.1 mph 40.3 mph N/A   Overcast
12:13 PM 55.4 °F 48.2 °F 77% 29.85 in 10.0 mi NW 31.1 mph 35.7 mph N/A   Overcast
12:33 PM 53.6 °F 50.0 °F 88% 29.86 in 10.0 mi NNW 24.2 mph 35.7 mph N/A   Overcast
12:53 PM 53.6 °F 50.0 °F 88% 29.87 in 10.0 mi NNW 25.3 mph 33.4 mph N/A Rain Light Rain
1:13 PM 55.4 °F 50.0 °F 82% 29.88 in 7.0 mi NNW 24.2 mph 31.1 mph N/A   Light Drizzle
1:34 PM 55.4 °F 51.8 °F 88% 29.89 in 7.0 mi NNW 28.8 mph 33.4 mph N/A Rain Light Rain
1:53 PM 55.4 °F 50.0 °F 82% 29.90 in 10.0 mi NNW 29.9 mph 35.7 mph N/A   Overcast
2:13 PM 57.2 °F 50.0 °F 77% 29.91 in 10.0 mi NNW 26.5 mph 32.2 mph N/A   Overcast
2:33 PM 57.2 °F 50.0 °F 77% 29.92 in 10.0 mi North 26.5 mph 31.1 mph N/A   Overcast
2:53 PM 59.0 °F 50.0 °F 72% 29.93 in 10.0 mi NNW 25.3 mph 33.4 mph N/A   Overcast
3:13 PM 59.0 °F 50.0 °F 72% 29.94 in 10.0 mi North 20.7 mph 32.2 mph N/A   Overcast
3:33 PM 57.2 °F 51.8 °F 82% 29.95 in 10.0 mi NW 24.2 mph - N/A   Overcast
3:53 PM 57.2 °F 53.6 °F 88% 29.95 in 7.0 mi NNW 23.0 mph - N/A Rain Light Rain
4:13 PM 57.2 °F 53.6 °F 88% 29.96 in 10.0 mi NNW 19.6 mph - N/A   Overcast
4:33 PM 59.0 °F 51.8 °F 77% 29.97 in 10.0 mi NNW 19.6 mph 28.8 mph N/A   Overcast
4:53 PM 57.2 °F 51.8 °F 82% 29.98 in 10.0 mi NW 18.4 mph - N/A   Overcast
5:13 PM 57.2 °F 53.6 °F 88% 29.99 in 10.0 mi NNW 18.4 mph 24.2 mph N/A   Overcast
5:33 PM 59.0 °F 51.8 °F 77% 30.00 in 10.0 mi NNW 16.1 mph - N/A   Mostly Cloudy
5:53 PM 59.0 °F 51.8 °F 77% 30.00 in 10.0 mi NNW 13.8 mph - N/A   Mostly Cloudy
6:13 PM 60.8 °F 51.8 °F 72% 30.01 in 10.0 mi NNW 18.4 mph 23.0 mph N/A   Mostly Cloudy
6:33 PM 60.8 °F 50.0 °F 68% 30.01 in 10.0 mi NNW 21.9 mph 27.6 mph N/A   Mostly Cloudy
6:53 PM 60.8 °F 48.2 °F 63% 30.02 in 10.0 mi NNW 24.2 mph 33.4 mph N/A   Overcast
7:14 PM 60.8 °F 48.2 °F 63% 30.03 in 10.0 mi NNW 20.7 mph - N/A   Mostly Cloudy
7:33 PM 60.8 °F 50.0 °F 68% 30.03 in 10.0 mi NNW 20.7 mph - N/A   Scattered Clouds
7:53 PM 59.0 °F 51.8 °F 77% 30.04 in 10.0 mi NNW 20.7 mph 26.5 mph N/A   Scattered Clouds
8:14 PM 57.2 °F 48.2 °F 72% 30.05 in 10.0 mi North 20.7 mph 28.8 mph N/A   Clear
8:33 PM 57.2 °F 50.0 °F 77% 30.05 in 10.0 mi NNW 18.4 mph 24.2 mph N/A   Clear
8:53 PM 57.2 °F 48.2 °F 72% 30.06 in 10.0 mi NNW 13.8 mph - N/A   Clear
9:14 PM 57.2 °F 51.8 °F 82% 30.06 in 10.0 mi NNW 17.3 mph - N/A   Scattered Clouds
9:33 PM 57.2 °F 50.0 °F 77% 30.07 in 10.0 mi NNW 19.6 mph 24.2 mph N/A   Scattered Clouds
9:53 PM 57.2 °F 50.0 °F 77% 30.07 in 10.0 mi NNW 16.1 mph - N/A   Mostly Cloudy
10:14 PM 57.2 °F 50.0 °F 77% 30.07 in 10.0 mi North 18.4 mph - N/A   Clear
10:33 PM 55.4 °F 48.2 °F 77% 30.08 in 10.0 mi North 17.3 mph 23.0 mph N/A   Clear
10:53 PM 55.4 °F 48.2 °F 77% 30.09 in 10.0 mi North 13.8 mph - N/A   Clear
11:38 PM 55.4 °F 48.2 °F 77% 30.09 in 10.0 mi North 15.0 mph - N/A   Clear
11:53 PM 55.4 °F 48.2 °F 77% 30.10 in 10.0 mi NNW 13.8 mph - N/A   Clear